This demonstration page uses our WeatherBlox Daily Observations layout. Learn more.

Left ArrowRight Arrow

44.8408, -93.29828

Hourly Observations for November 28, 2019

Temp ( °F °C ) Dew Point ( °F °C ) Humidity (%) Winds ( mph kmh ) Pressure ( in mb ) Visibility ( mi km ) Precip ( " mm )
12:20 am 00:20 Cloudy 25 -3.9 16 -8.9 69 69 NNE 10 17 30.51 1033 10 16 0.00 0.00
12:32 am 00:32 Cloudy 26 -3.3 16 -8.9 66 66 N 8 13 30.52 1033 10 16 0.00 0.00
12:53 am 00:53 Cloudy 25 -3.9 16 -8.9 69 69 NNE 9 15 30.51 1033 10 16 0.00 0.00
1:53 am 01:53 Cloudy 25 -3.9 16 -8.9 69 69 N 7 11 30.53 1034 10 16 0.00 0.00
2:53 am 02:53 Cloudy 25 -3.9 17 -8.3 72 72 NNE 6 9 30.54 1034 10 16 0.00 0.00
3:53 am 03:53 Cloudy 25 -3.9 16 -8.9 69 69 NE 6 9 30.55 1035 10 16 0.00 0.00
4:53 am 04:53 Cloudy 24 -4.4 16 -8.9 71 71 NNE 5 7 30.56 1035 10 16 0.00 0.00
5:50 am 05:50 Partly Cloudy 23 -5 16 -9 74 74 NE 5 7 30.61 1036 10 16 0.00 0.00
5:53 am 05:53 Mostly Clear 23 -5 16 -8.9 74 74 NE 5 7 30.58 1035 10 16 0.00 0.00
6:16 am 06:16 Mostly Cloudy 23 -5 16 -8.9 74 74 Calm 30.63 1037 10 16 0.00 0.00
6:53 am 06:53 Cloudy 24 -4.4 17 -8.3 75 75 N 5 7 30.60 1036 10 16 0.00 0.00
7:53 am 07:53 Cloudy 24 -4.4 17 -8.3 75 75 N 6 9 30.59 1036 10 16 0.00 0.00
8:53 am 08:53 Cloudy 25 -3.9 17 -8.3 72 72 NE 3 6 30.59 1036 10 16 0.00 0.00
9:53 am 09:53 Cloudy 26 -3.3 18 -7.8 71 71 NE 9 15 30.60 1036 10 16 0.00 0.00
10:53 am 10:53 Cloudy 26 -3.3 18 -7.8 71 71 ENE 6 9 30.58 1036 10 16 0.00 0.00
11:53 am 11:53 Mostly Cloudy 27 -2.8 19 -7.2 72 72 ENE 9 15 30.54 1034 10 16 0.00 0.00
12:53 pm 12:53 Cloudy 27 -2.8 19 -7.2 72 72 E 7 11 30.52 1034 10 16 0.00 0.00
1:53 pm 13:53 Cloudy 28 -2.2 19 -7.2 69 69 ENE 6 9 30.53 1034 10 16 0.00 0.00
2:53 pm 14:53 Cloudy 27 -2.8 20 -6.7 75 75 ESE 8 13 30.52 1034 10 16 0.00 0.00
3:53 pm 15:53 Cloudy 27 -2.8 20 -6.7 75 75 SE 8 13 30.53 1034 10 16 0.00 0.00
4:44 pm 16:44 Cloudy 27 -2.8 21 -6.1 78 78 ESE 10 17 30.55 1034 10 16 0.00 0.00
4:53 pm 16:53 Cloudy 27 -2.8 21 -6.1 78 78 E 9 15 30.53 1034 10 16 0.00 0.00
5:53 pm 17:53 Cloudy 27 -2.8 21 -6.1 78 78 ESE 6 9 30.54 1034 10 16 0.00 0.00
6:53 pm 18:53 Cloudy 27 -2.8 22 -5.6 81 81 SE 3 6 30.52 1034 10 16 0.00 0.00
7:53 pm 19:53 Cloudy 28 -2.2 22 -5.6 78 78 SSE 5 7 30.51 1033 10 16 0.00 0.00
8:53 pm 20:53 Cloudy 27 -2.8 22 -5.6 81 81 SE 5 7 30.49 1033 10 16 0.00 0.00
9:53 pm 21:53 Cloudy 28 -2.2 23 -5 81 81 SE 5 7 30.49 1033 10 16 0.00 0.00
10:53 pm 22:53 Cloudy 28 -2.2 24 -4.4 85 85 SE 5 7 30.48 1032 10 16 0.00 0.00
11:08 pm 23:08 Cloudy 28 -2.2 24 -4.4 85 85 SE 5 7 30.49 1033 10 16 0.00 0.00
11:53 pm 23:53 Cloudy 28 -2.2 24 -4.4 85 85 ESE 7 11 30.47 1032 10 16 0.00 0.00

Powered by AerisWeather